Vorticity
nan nan nan nan nan nan nan nan nan nan nan nan nan nan nan nan nan nan nan nan nan nan nan nan nan nan nan nan nan nan nan nan nan nan nan nan nan nan nan nan nan nan nan nan nan nan nan nan nan
nan 5 9 7 4 5 11 11 7 13 7 8 6 4 2 13 20 11 8 5 8 5 4 8 8 6 6 5 4 4 7 5 5 7 6 5 5 6 6 6 6 7 7 7 7 6 5 6 nan
nan 10 6 4 4 4 13 5 4 5 6 10 3 4 7 11 6 5 11 12 4 4 7 8 7 7 7 6 6 6 5 6 5 6 7 6 6 6 6 8 7 6 6 6 7 6 5 6 nan
nan 6 8 4 5 15 9 9 6 5 10 7 3 6 12 11 8 10 9 9 6 9 9 9 7 6 5 6 6 7 6 6 5 6 6 5 5 7 7 7 6 6 6 6 6 5 6 5 nan
nan 8 5 8 9 20 6 5 6 5 8 10 12 6 2 14 14 7 3 4 3 5 8 9 8 7 6 5 6 7 5 5 7 7 6 6 5 6 8 6 5 5 6 6 5 4 5 4 nan
nan 6 5 5 9 4 4 4 8 9 5 3 5 6 10 11 5 5 1 1 2 4 9 9 7 5 7 6 6 6 6 6 5 6 6 6 5 5 7 6 5 4 5 6 5 4 3 3 nan
nan 7 6 4 8 0 3 4 11 17 3 4 7 2 9 5 5 5 3 9 7 4 6 6 6 8 6 5 6 5 6 6 6 5 7 6 5 5 7 6 3 3 5 5 5 4 4 3 nan
nan 6 7 11 3 -0 3 9 16 10 7 7 2 2 11 11 4 7 4 3 5 11 7 5 5 5 6 9 8 5 5 5 6 6 5 4 3 2 2 4 6 5 5 4 3 3 3 3 nan
nan 6 7 9 6 3 3 9 14 7 1 1 9 16 12 7 3 5 6 6 3 5 10 10 6 6 6 7 7 7 5 4 4 4 3 -1 0 6 6 6 4 3 3 4 4 3 3 3 nan
nan 10 12 2 5 3 3 2 6 20 10 8 15 10 7 5 7 7 2 2 8 5 6 10 10 6 6 6 6 5 4 4 5 5 4 3 7 7 7 7 6 5 4 5 6 6 6 5 nan
nan 12 8 10 9 4 3 2 12 8 9 15 10 4 5 6 3 5 9 9 6 2 4 6 6 5 7 5 6 7 8 6 8 8 7 8 8 6 6 6 7 9 8 6 8 8 8 7 nan
nan 14 12 14 7 8 10 3 8 7 7 8 6 5 6 5 7 4 8 10 4 7 8 8 6 5 6 9 8 6 6 7 9 11 8 6 7 7 7 6 8 7 8 8 8 9 9 9 nan
nan 7 13 11 8 7 5 7 3 5 12 9 7 3 7 6 9 9 11 9 3 6 8 9 6 4 8 6 6 7 9 10 9 9 7 6 7 8 7 7 7 6 7 10 8 9 9 8 nan
nan 7 8 7 10 8 3 4 1 -1 14 16 9 4 6 6 8 12 6 8 6 10 9 5 8 6 7 5 4 9 11 9 8 6 11 10 7 7 6 7 7 9 10 9 10 8 7 9 nan
nan 4 5 13 -3 4 3 1 6 2 0 18 14 8 6 3 11 13 9 8 8 9 7 9 9 7 4 9 6 8 6 8 9 9 9 9 7 6 8 8 8 8 9 7 8 7 10 10 nan
nan 2 2 -3 8 16 4 4 3 4 4 5 16 19 5 6 10 6 10 8 11 8 5 5 6 7 8 6 9 9 8 9 7 5 8 8 6 6 7 10 11 9 8 9 8 9 8 10 nan
nan 7 11 8 12 3 8 12 11 1 2 7 15 13 13 9 4 11 8 8 11 6 5 6 9 7 7 5 9 10 9 7 8 6 7 7 6 8 6 8 11 12 8 8 10 9 13 10 nan
nan 15 11 8 14 10 5 11 12 9 4 8 3 -0 12 12 9 7 7 12 8 5 6 7 7 7 8 6 7 8 6 8 8 7 9 9 8 7 5 9 10 7 7 8 9 8 11 10 nan
nan 14 12 10 12 8 6 6 12 10 2 8 7 3 7 11 10 7 10 8 5 6 8 7 6 4 4 6 6 8 9 7 8 11 9 8 7 8 9 6 7 7 6 7 8 6 6 8 nan
nan 10 7 13 7 5 13 10 13 7 9 10 6 3 7 8 10 12 10 7 6 5 6 8 5 6 6 7 9 8 9 8 8 8 10 9 7 5 10 8 5 7 7 7 8 7 10 7 nan
nan 6 10 14 6 6 6 14 16 11 9 8 8 7 4 6 10 14 10 6 5 6 7 9 6 6 6 7 6 8 7 8 9 11 11 9 10 8 7 8 8 10 3 8 9 8 9 7 nan
nan 8 16 7 5 10 7 8 11 22 12 4 7 7 2 8 8 10 8 9 6 5 7 8 7 5 7 7 6 7 6 7 9 9 9 11 9 7 7 8 4 4 10 11 7 9 6 8 nan
nan 8 13 7 8 12 3 11 18 15 8 12 9 6 6 7 7 7 11 10 7 7 6 7 8 4 6 7 7 6 7 8 9 12 11 8 8 9 8 8 10 6 7 7 9 11 8 7 nan
nan 11 8 8 8 9 12 4 14 20 14 9 10 9 6 5 6 13 15 9 7 7 6 7 9 5 5 8 7 8 7 7 9 9 8 9 9 8 7 9 8 6 9 10 8 9 10 9 nan
nan 8 10 9 14 9 6 9 10 9 27 24 6 5 9 5 7 9 14 16 10 7 6 6 8 7 6 7 8 8 8 9 7 6 7 7 8 9 10 10 8 7 9 6 8 7 7 8 nan
nan 6 3 5 5 7 16 13 8 10 15 17 11 6 11 11 12 9 3 13 15 7 8 6 6 7 7 6 6 9 8 7 8 7 7 9 9 10 11 10 9 8 7 7 6 8 8 8 nan
nan 11 9 5 6 12 15 4 10 8 12 16 16 14 11 14 9 5 10 13 12 8 9 8 6 7 8 6 6 7 9 8 8 8 7 10 10 12 12 9 8 8 8 8 8 8 8 9 nan
nan 2 8 13 14 10 8 9 5 2 5 8 16 22 26 17 10 8 12 15 12 10 9 10 8 9 6 6 6 8 8 7 7 11 11 7 9 11 12 9 8 8 9 10 9 7 8 8 nan
nan 10 11 12 6 10 9 9 12 5 7 8 6 11 15 7 4 14 18 14 12 17 19 11 7 8 8 8 8 7 7 7 8 9 8 8 7 8 9 8 8 8 9 10 9 8 8 7 nan
nan nan nan nan nan nan nan nan nan nan nan nan nan nan nan nan nan nan nan nan nan nan nan nan nan nan nan nan nan nan nan nan nan nan nan nan nan nan nan nan nan nan nan nan nan nan nan nan nan
CAPE
7 0 0 444 43 138 54 115 54 106 137 26 0 0 94 211 141 3 1 17 57 177 570 815 1424 948 593 480 254 211 1317 1581 1605 1728 1873 1874 1868 1817 1795 1881 1816 1842 1973 1939 1971 1884 1920 1890 1936
0 0 177 473 235 126 65 220 245 94 181 18 0 37 281 122 0 0 0 49 98 385 929 1043 1771 1661 1157 630 1256 1522 1910 1780 1766 1633 1928 1788 1714 1806 1743 1697 1885 1956 1703 1665 1840 2029 2022 1988 1882
0 40 0 1 193 138 33 242 205 65 121 5 0 3 72 106 152 121 119 66 260 509 821 907 1410 1338 1347 1269 1596 1596 1964 1768 1788 1896 1926 1817 1561 1687 1774 1809 1918 1955 2014 2039 2012 2037 1909 1794 1427
0 85 290 440 193 158 13 194 133 49 44 0 0 0 1 25 36 171 189 406 537 396 783 1757 1845 1407 1644 1812 1822 1764 1890 1412 1935 2023 1972 1690 1506 1544 1692 1903 1913 1950 1964 2050 1800 1668 1686 1671 1654
17 13 0 26 142 49 29 203 211 250 1 14 13 21 5 19 12 16 372 357 669 827 1458 1558 2341 1557 2040 1631 1874 1775 1749 1765 1866 2184 2031 1781 1804 1908 1962 1869 1983 1618 1310 1530 1409 1304 1199 1242 1473
0 4 6 21 78 200 139 195 165 64 13 17 0 0 0 18 4 97 11 0 115 467 1366 1647 2325 1959 2014 1468 1691 1763 1773 1890 1908 2018 1848 1873 1936 2098 2183 1865 1998 1547 1063 567 755 1025 1019 1025 931
0 18 26 37 296 180 122 35 143 56 56 29 0 0 2 1 168 354 172 0 9 138 1354 1503 1528 1599 1859 1829 1944 2032 1892 1885 1835 1805 2116 2014 1971 1889 1980 2191 2061 1978 1595 1338 825 545 382 281 209
79 19 18 96 85 165 113 137 104 118 129 36 2 0 0 31 51 434 363 113 369 416 1096 1164 1338 1281 1317 1402 1519 1924 1832 1837 1845 1953 2007 1469 1831 1837 1686 2158 2272 1733 1678 1637 1470 1303 973 704 558
113 34 73 125 225 321 79 151 86 87 98 107 49 0 0 0 39 101 218 169 0 10 310 873 939 892 923 1085 1332 1953 1700 2005 2111 1829 1813 2049 784 1103 1266 1565 1751 1655 1670 1690 1756 1668 1548 1355 1395
475 8 64 400 169 8 4 296 262 108 78 71 33 2 0 18 24 119 115 33 1 60 434 603 834 1004 957 1282 1305 1479 1551 1240 1185 1219 1195 912 461 676 896 1189 1520 1519 1462 1392 1607 1810 1930 1898 1169
359 149 35 93 90 0 23 59 107 186 85 31 0 0 0 12 34 33 190 131 322 99 103 61 430 640 515 1146 1279 944 1047 903 908 931 1007 876 886 1089 960 929 1061 940 1476 1133 1725 1760 1593 1368 1267
244 598 136 391 125 0 0 34 125 49 120 93 12 0 0 2 12 86 45 76 14 0 0 92 552 474 205 894 108 1 583 823 208 552 687 432 29 140 156 336 608 561 449 833 657 778 932 823 859
55 193 542 333 36 0 0 0 125 241 27 60 8 1 0 0 23 61 89 202 61 57 136 276 209 0 528 692 476 566 674 213 346 567 525 709 433 233 313 398 529 697 617 702 531 357 481 351 134
346 440 675 489 16 0 0 145 26 165 150 156 39 0 16 45 42 50 21 394 147 140 455 332 0 158 450 160 307 453 508 268 232 358 922 1101 290 163 917 522 781 947 510 776 575 760 1031 1035 0
276 613 834 615 262 228 148 198 131 127 167 159 72 33 51 81 37 46 5 196 145 614 1014 902 353 364 217 95 444 3 184 643 819 1188 1088 569 635 1241 1439 929 1016 1157 798 572 269 479 1007 307 200
376 319 395 19 59 756 199 150 63 2 28 36 258 120 107 53 40 22 18 66 268 755 874 703 853 1329 872 781 322 370 33 784 904 990 1231 1242 1341 1002 1514 1458 830 675 1168 886 1021 901 538 288 53
0 71 404 286 428 831 383 101 47 0 20 295 85 129 57 48 30 27 17 57 467 679 700 563 870 1029 782 851 1368 524 693 636 403 457 516 1192 1279 1388 1725 995 1572 1220 554 655 278 1504 1929 696 127
0 24 240 352 440 659 313 112 22 2 13 203 3 320 85 2 17 14 6 115 518 500 625 759 826 1330 1106 1585 1174 389 545 197 573 623 647 1609 1701 1723 1315 601 43 0 121 83 171 1223 628 1064 776
1 121 539 795 1003 570 299 346 67 55 93 306 7 25 30 29 9 5 0 271 386 362 368 348 554 929 427 970 1232 1013 876 183 868 1016 1719 1399 1292 1485 1758 804 0 0 0 0 173 258 152 374 0
0 0 504 690 628 145 451 444 401 35 76 220 44 5 54 236 44 0 0 114 248 226 333 559 1123 969 750 1304 778 747 893 869 809 761 1709 1414 1197 1896 1819 334 113 0 0 0 107 66 0 0 83
0 0 3 332 358 78 70 7 377 353 123 308 14 0 59 228 127 31 2 64 126 203 283 566 1160 1088 713 1187 763 1403 875 0 313 804 1518 1169 1829 1400 1555 754 357 183 377 617 115 0 62 60 0
0 0 0 623 266 2 26 2 6 371 460 195 101 0 4 52 155 15 5 9 98 174 260 732 853 902 1305 1007 539 786 571 355 117 544 1095 915 1165 1552 1699 1826 1351 418 515 0 438 372 217 0 0
0 0 0 0 0 0 23 4 9 294 627 406 176 162 164 29 133 162 13 0 86 185 292 740 666 774 1110 1071 1078 646 740 675 818 800 1616 1289 1259 1435 1268 1595 1640 559 249 814 824 424 59 203 13
0 0 0 0 0 0 0 41 11 351 827 724 201 446 310 2 0 151 23 3 54 149 200 679 494 529 924 845 956 1078 890 357 456 1035 1134 1390 1195 1309 1257 1559 1556 1677 1809 1789 1727 1656 1802 1636 706
0 0 0 0 0 0 0 34 200 55 798 844 386 280 360 228 110 60 27 27 61 155 281 637 549 677 766 775 750 566 1213 1008 293 620 452 826 1215 1146 1125 1512 1977 2008 1880 1803 1678 1900 2077 1497 1608
0 0 0 0 1 0 1 157 193 331 429 707 462 284 191 242 85 28 61 9 91 154 416 564 1044 818 635 560 827 860 862 1166 587 634 721 892 703 1180 477 1398 1527 1411 1836 1649 1739 1951 1315 1282 1463
0 0 0 0 0 0 43 61 36 4 125 267 418 325 182 378 38 0 60 30 55 39 354 537 938 599 647 636 922 1020 801 899 853 791 838 1333 1155 686 460 1552 1498 1506 1645 1446 1548 1708 1434 943 1251
0 0 0 0 0 0 186 213 108 28 401 302 285 272 352 315 115 44 33 48 148 174 175 584 937 642 517 501 920 1140 956 747 823 874 1329 1140 1268 1289 1076 1355 1497 1463 1476 1658 1532 1503 1396 1175 1175
0 0 0 0 0 0 9 86 34 30 8 164 344 391 391 456 374 317 236 116 105 187 409 692 977 875 659 630 705 669 672 577 945 794 981 893 1050 885 1323 1191 1312 1311 1454 1511 1319 1285 1488 1237 869
0 0 0 0 0 0 0 43 40 72 288 84 344 403 113 339 140 410 310 127 202 253 87 862 978 950 1072 770 548 423 343 249 830 756 777 704 821 1257 1170 1379 1569 1509 1422 1470 1319 1411 1429 970 1098